Terminal Aerodrome Forecast
Issued by NWS Pueblo, CO

Home | Current Version | Previous Version | Text Only | Print | Product List | Glossary On
Versions: 1 2 3 4 5 6 7 8 9 10 11 12 13 14 15 16 17 18 19 20
000
FTUS45 KPUB 261732
TAFCOS
TAF
KCOS 261732Z 2618/2718 05010KT P6SM SCT025 BKN035
     FM262000 03020G40KT 3SM TSRA BKN030CB
     FM270000 01015G25KT P6SM VCSH BKN030
     FM270400 34012KT 5SM -RA BR BKN030
     FM270700 34015G30KT 2SM -RA BR OVC025
     FM271500 35020G40KT P6SM -SHRA SCT015 BKN030=

USA.gov is the U.S. government's official web portal to all federal, state and local government web resources and services.